sat.trackr.live / text

‹ back to catalog

STARLINK-31583

NORAD 59369 · 2024-060X

PAYLOAD ACTIVE UNKNOWN

§ Identity

Operator
Country
US
Launch date
2024-03-31
Launch site
AFETR
Launch vehicle
Mass (kg)
RCS (m²)

Purposes: comms

External: N2YO · Heavens-Above · Gunter

§ Orbital elements

Epoch: 2026-09-20T07:18:29.632896Z

Period
94.27 min
Inclination
43.0045°
Eccentricity
0.0001516
Mean motion
15.27580721 rev/d
Perigee alt
482.0 km
Apogee alt
484.1 km
Semi-major
6,861.2 km
B*
4.2755e-5
RAAN
229.7897°
Arg perigee
280.0587°
Mean anomaly
80.0094°
Rev number
13,995

§ Raw data

STARLINK-315831 59369U 24060X   26263.30450964  .00000914  00000+0  42755-4 0  99942 59369  43.0045 229.7897 0001516 280.0587  80.0094 15.27580721139953

JSON: /api/v1/satellites/59369 · /tle

For live sub-satellite position, see the globe view (requires WebGL).

§ Visibility from observer

Set your observer location to see the next 7 days of passes ≥ 10°. The values pass through the URL so the page stays shareable.

No JS? Fill the form by hand. The geolocation button needs JavaScript.